Terug naar catalogus

NOAA 16 DEB

ActiefSSO
NORAD 41131·DEBRIS·🇺🇸 United States

Gelanceerd Sep 21, 2000 vanaf Vandenberg Space Force Base

Loading…

Volgende Passages (komende 24 uur)

TLE

VersSource: Space-Track

Epoch: Sep 14, 2026, 05:18 UTC

1 41131U 00055BN  26257.22117002  .00001534  00000-0  88430-3 0  9996
2 41131  98.7880 256.7783 0055018 123.2564 237.3895 14.09826617550676

Volg NOAA 16 DEB in realtime met AllMySat

Download on the App Store